Regional Weather Roundup
Issued by NWS Kansas City/Pleasant Hill, MO

Home | Current Version | Previous Version | Graphics & Text | Print | Product List | Glossary Off
Versions: 1 2 3 4 5 6 7 8 9 10 11 12 13 14 15 16 17 18 19 20 21 22 23 24 25 26 27 28 29 30 31 32 33 34 35 36 37 38 39 40 41 42 43 44 45 46 47 48 49 50

000
ASUS43 KEAX 251004
RWREAX

WEATHER ROUNDUP FOR EASTERN KANSAS AND NORTHWEST MISSOURI
NATIONAL WEATHER SERVICE KANSAS CITY/PLEASANT HILL MO
500 AM CDT SAT APR 25 2015

KSZ040-057-103>105-MOZ028-029-037-043-251100-
...KANSAS CITY METROPOLITAN AREA...

CITY           SKY/WX    TMP DP  RH WIND       PRES   REMARKS
K.C. INTL      LGT RAIN  56  55  97 SE14      29.39F
K.C. DOWNTOWN  CLOUDY    57  54  89 E3        29.40F
LEES SUMMIT    MOCLDY    56  54  93 SE9       29.44F
OLATHE - IXD   CLOUDY    56  54  93 SE10      29.42F
OLATHE - OJC   CLOUDY    55  54  96 SE8       29.41F
LAWRENCE       CLOUDY    56  53  90 SE13      29.39F

$$

MOZ001>008-011>017-020>025-030>033-038>040-044>046-053-054-251100-
...NORTHERN AND CENTRAL MISSOURI...

CITY           SKY/WX    TMP DP  RH WIND       PRES   REMARKS
ST. JOSEPH     LGT RAIN  58  55  90 SE16      29.40S
MOSBY          CLOUDY    55  54  94 E9        29.44F
WARRENSBURG    CLOUDY    55  54  94 SE8       29.47F
WHITEMAN AFB   NOT AVBL
CLINTON        CLOUDY    59  57  94 SE7       29.48S
SEDALIA        CLOUDY    59  55  87 SE13      29.48F
WARSAW         NOT AVBL
MARSHALL       CLOUDY    57  57 100 SE9       29.48F
CHILLICOTHE      N/A     55  53  93 SE6       29.49F
MOBERLY        CLOUDY    55  50  82 SE10      29.51F
KIRKSVILLE     CLOUDY    52  51  97 SE10      29.53F

$$

MOZ041-047>049-056>058-063>065-088>090-097-251100-
...EASTERN AND SOUTHERN MISSOURI...

CITY           SKY/WX    TMP DP  RH WIND       PRES   REMARKS
ST. LOUIS INTL LGT RAIN  56  50  80 SE10      29.60F
SPIRIT OF STL  LGT RAIN  54  50  86 E3        29.58F
COLUMBIA       CLOUDY    54  53  97 SE12      29.52F
JEFFERSON CITY CLOUDY    57  53  86 SE10      29.52F
MEXICO         CLOUDY   N/A N/A N/A SE6       29.56F
HANNIBAL       LGT SNOW  52  50  93 E6        29.57F
ROLLA          CLOUDY    55  54  96 S15       29.53F
OSAGE BEACH    CLOUDY    57  54  88 SE8       29.51F
SPRINGFIELD    MOCLDY    59  56  89 S17       29.50F
BRANSON        PTCLDY    57  55  94 S5        29.54F
NEVADA         CLOUDY    57  55  94 CALM      29.48R
JOPLIN         PTCLDY    61  57  87 S16G24    29.47F
WEST PLAINS    FOG       56  55  97 S7        29.59F VSB 3/4

$$

IAZ060-094-KSZ022-034>040-054-083-096-NEZ052-066-093-251100-
...KANSAS...SOUTHEAST NEBRASKA AND IOWA...

CITY           SKY/WX    TMP DP  RH WIND       PRES   REMARKS
TOPEKA         CLOUDY    57  54  89 SE7       29.40R THUNDER
MANHATTAN      RAIN      56  54  93 W10G20    29.42R FOG
EMPORIA        CLOUDY    54  53  97 CALM      29.40S
CHANUTE        CLOUDY    62  58  86 SW9       29.44S
WICHITA        MOCLDY    57  53  86 W9        29.47R
OMAHA          LGT RAIN  53  51  93 E13G18    29.47R
LINCOLN        LGT RAIN  55  54  96 NE14      29.44S FOG
FALLS CITY     CLOUDY    58  55  90 SE9       29.38F
LAMONI         CLOUDY    55  51  86 E6        29.47F
DES MOINES     CLOUDY    49  43  80 E13G29    29.56S

$$



USA.gov is the U.S. government's official web portal to all federal, state and local government web resources and services.